Temp
-13 -13 -13 -13 -13 -13 -13 -12 -12 -11 -12 -12 -13 -12 -10 -10 -10 -11 -11 -11 -10 -10 -12 -12 -12 -12 -11 -10 -9 -10 -10 -9 -10 -10 -9 -9 -9 -9 -9 -9 -10 -9 -10 -10
-14 -14 -14 -13 -13 -14 -14 -13 -12 -12 -13 -14 -13 -12 -11 -11 -10 -10 -10 -11 -11 -10 -10 -11 -12 -12 -12 -12 -11 -11 -10 -10 -9 -9 -9 -9 -9 -10 -9 -10 -10 -10 -10 -10
-14 -14 -14 -14 -14 -15 -14 -14 -14 -13 -14 -14 -13 -13 -12 -11 -11 -11 -11 -11 -10 -10 -10 -10 -11 -11 -11 -12 -12 -11 -10 -9 -8 -9 -9 -9 -10 -9 -9 -9 -10 -10 -10 -10
-15 -15 -15 -15 -15 -16 -15 -16 -15 -15 -15 -14 -16 -12 -12 -11 -11 -11 -11 -12 -11 -11 -10 -10 -10 -11 -11 -11 -10 -9 -10 -9 -9 -8 -9 -9 -10 -10 -10 -10 -9 -9 -10 -10
-15 -15 -15 -15 -16 -16 -15 -17 -16 -15 -15 -16 -14 -15 -10 -11 -11 -12 -12 -12 -12 -12 -12 -11 -11 -11 -11 -11 -10 -9 -8 -9 -9 -9 -9 -10 -9 -10 -10 -9 -9 -9 -10 -10
-17 -19 -19 -18 -18 -19 -18 -19 -18 -18 -19 -18 -15 -17 -12 -13 -12 -13 -13 -13 -13 -13 -13 -12 -11 -11 -12 -11 -11 -10 -9 -9 -9 -9 -9 -9 -9 -9 -9 -9 -9 -10 -10 -10
-19 -20 -20 -20 -20 -21 -21 -21 -21 -20 -20 -19 -18 -20 -16 -14 -15 -14 -14 -14 -14 -14 -14 -13 -11 -10 -11 -12 -11 -11 -10 -9 -9 -9 -9 -9 -9 -9 -9 -9 -9 -10 -10 -10
-20 -19 -20 -20 -21 -21 -22 -22 -21 -21 -20 -20 -20 -19 -17 -16 -18 -18 -15 -14 -15 -15 -14 -12 -11 -11 -10 -11 -11 -11 -10 -9 -9 -9 -9 -9 -9 -9 -8 -9 -10 -10 -10 -10
-20 -19 -20 -21 -21 -21 -21 -21 -21 -20 -21 -20 -20 -19 -20 -20 -19 -18 -16 -15 -14 -14 -14 -13 -12 -11 -10 -10 -11 -11 -10 -10 -9 -9 -9 -9 -9 -8 -9 -10 -10 -10 -10 -10
-20 -19 -21 -21 -21 -22 -22 -22 -22 -21 -21 -21 -20 -19 -20 -20 -20 -20 -18 -16 -15 -15 -15 -13 -13 -12 -11 -10 -10 -10 -10 -10 -9 -9 -9 -9 -9 -8 -9 -10 -10 -10 -10 -10
-20 -21 -20 -21 -21 -22 -22 -22 -22 -21 -21 -21 -20 -20 -20 -20 -20 -20 -20 -18 -16 -17 -16 -12 -14 -12 -11 -11 -10 -10 -10 -10 -9 -9 -9 -9 -9 -9 -9 -9 -10 -10 -10 -10
-20 -20 -20 -20 -21 -21 -22 -21 -22 -21 -21 -21 -21 -20 -21 -20 -20 -19 -19 -18 -17 -17 -14 -12 -13 -12 -11 -11 -10 -10 -10 -10 -10 -10 -10 -10 -10 -9 -9 -10 -10 -10 -10 -11
-20 -21 -20 -20 -21 -22 -22 -21 -21 -21 -22 -21 -22 -21 -21 -20 -20 -19 -19 -18 -17 -17 -15 -13 -14 -11 -12 -11 -10 -10 -10 -10 -10 -10 -10 -10 -10 -10 -10 -10 -10 -10 -11 -11
-20 -21 -21 -21 -21 -22 -21 -22 -21 -22 -21 -22 -21 -21 -21 -21 -19 -18 -17 -17 -16 -15 -15 -13 -12 -12 -12 -12 -12 -10 -10 -10 -11 -10 -10 -10 -10 -10 -10 -10 -10 -10 -10 -10
-20 -20 -21 -21 -22 -21 -21 -21 -21 -21 -22 -22 -21 -21 -21 -21 -20 -18 -18 -17 -16 -15 -16 -13 -13 -14 -13 -13 -12 -11 -11 -11 -10 -10 -10 -10 -11 -11 -10 -11 -10 -10 -10 -10
-20 -20 -20 -21 -21 -20 -20 -21 -21 -21 -21 -22 -22 -21 -21 -21 -21 -19 -18 -18 -16 -14 -15 -13 -13 -13 -12 -12 -8 -11 -11 -11 -10 -10 -10 -11 -11 -11 -11 -10 -10 -10 -10 -10
-20 -20 -20 -20 -20 -20 -21 -20 -20 -20 -21 -21 -21 -21 -21 -20 -21 -19 -18 -16 -16 -14 -13 -13 -13 -13 -12 -11 -12 -12 -11 -11 -10 -10 -11 -11 -11 -11 -10 -10 -10 -10 -10 -10
-20 -20 -20 -20 -20 -20 -20 -20 -21 -21 -21 -22 -22 -21 -21 -21 -20 -19 -18 -16 -15 -14 -13 -14 -12 -13 -9 -11 -13 -12 -11 -11 -11 -11 -11 -11 -11 -11 -10 -11 -11 -10 -11 -11
-20 -20 -20 -20 -20 -20 -21 -20 -20 -21 -21 -21 -21 -21 -20 -20 -19 -19 -18 -17 -16 -14 -14 -13 -12 -12 -11 -10 -12 -12 -11 -11 -11 -11 -11 -11 -11 -11 -11 -11 -10 -11 -11 -11
-20 -20 -20 -21 -20 -20 -20 -20 -20 -21 -20 -20 -20 -20 -20 -19 -19 -18 -19 -15 -15 -14 -14 -13 -12 -13 -11 -11 -12 -11 -11 -11 -11 -11 -11 -11 -11 -11 -11 -11 -11 -11 -11 -11
-20 -20 -20 -21 -21 -21 -21 -21 -21 -21 -21 -21 -20 -19 -19 -17 -17 -18 -18 -14 -14 -13 -13 -13 -13 -11 -11 -12 -12 -11 -11 -11 -11 -11 -11 -11 -11 -11 -11 -10 -10 -11 -11 -11
-20 -20 -20 -20 -21 -21 -21 -21 -20 -20 -21 -20 -19 -19 -16 -16 -16 -17 -16 -13 -14 -13 -13 -14 -13 -12 -13 -13 -11 -10 -11 -11 -10 -11 -11 -11 -11 -11 -11 -10 -11 -11 -11 -11
-20 -20 -21 -21 -21 -21 -21 -20 -20 -19 -19 -19 -19 -17 -14 -15 -16 -16 -14 -14 -14 -14 -13 -14 -13 -12 -13 -12 -11 -11 -10 -10 -11 -11 -11 -11 -11 -11 -11 -11 -11 -11 -11 -12
-21 -21 -20 -21 -20 -20 -21 -20 -20 -19 -19 -19 -19 -16 -14 -15 -15 -14 -14 -14 -14 -13 -13 -12 -12 -10 -11 -11 -11 -11 -10 -11 -11 -11 -11 -11 -11 -11 -11 -11 -11 -11 -12 -12
-21 -21 -20 -21 -21 -21 -20 -19 -19 -19 -20 -19 -19 -16 -14 -15 -15 -14 -14 -14 -14 -14 -14 -12 -12 -12 -12 -13 -11 -11 -11 -11 -11 -11 -11 -11 -11 -11 -11 -12 -12 -12 -12 -12
-21 -20 -20 -21 -20 -21 -20 -19 -19 -20 -19 -19 -19 -16 -14 -15 -14 -14 -15 -14 -14 -13 -12 -12 -11 -12 -13 -13 -11 -11 -11 -12 -11 -11 -11 -11 -11 -12 -12 -12 -12 -12 -12 -12
Height
5706 5706 5705 5706 5707 5704 5705 5708 5709 5716 5711 5711 5710 5719 5733 5736 5738 5738 5746 5752 5758 5765 5774 5779 5781 5785 5791 5796 5801 5807 5809 5812 5815 5818 5821 5825 5826 5826 5826 5824 5823 5821 5819 5820
5698 5697 5696 5695 5695 5693 5693 5694 5698 5699 5697 5698 5704 5704 5717 5722 5727 5732 5734 5736 5742 5749 5759 5767 5772 5775 5777 5781 5784 5792 5795 5798 5804 5811 5813 5815 5816 5817 5817 5816 5816 5816 5814 5813
5687 5687 5685 5684 5683 5679 5680 5683 5683 5682 5681 5684 5686 5687 5701 5711 5715 5718 5723 5725 5730 5734 5742 5751 5758 5763 5766 5768 5771 5774 5781 5785 5792 5798 5803 5806 5805 5807 5807 5807 5805 5808 5807 5806
5678 5675 5674 5673 5671 5666 5667 5666 5665 5665 5665 5666 5669 5671 5683 5698 5702 5702 5706 5709 5718 5723 5730 5736 5743 5749 5754 5758 5763 5767 5771 5775 5782 5786 5794 5796 5796 5795 5797 5795 5793 5799 5799 5797
5664 5661 5660 5660 5656 5654 5657 5652 5652 5652 5652 5649 5656 5652 5675 5679 5684 5688 5691 5695 5700 5708 5714 5720 5728 5737 5743 5746 5751 5755 5761 5765 5771 5777 5782 5785 5784 5787 5790 5786 5783 5788 5788 5788
5652 5651 5647 5645 5643 5640 5638 5636 5637 5637 5638 5631 5646 5641 5654 5660 5670 5676 5673 5676 5686 5695 5702 5707 5714 5724 5730 5736 5740 5744 5749 5754 5759 5767 5771 5773 5775 5776 5778 5777 5778 5779 5778 5778
5649 5646 5642 5638 5633 5631 5627 5625 5624 5625 5626 5622 5634 5630 5634 5646 5648 5650 5651 5660 5670 5679 5684 5691 5698 5706 5719 5724 5730 5734 5740 5744 5748 5753 5760 5763 5765 5766 5766 5768 5770 5769 5769 5770
5640 5642 5636 5632 5626 5624 5625 5621 5621 5617 5617 5614 5618 5619 5623 5629 5628 5624 5631 5640 5652 5662 5670 5680 5690 5699 5707 5717 5721 5727 5732 5738 5742 5745 5750 5753 5756 5758 5758 5761 5759 5760 5762 5762
5635 5636 5631 5626 5622 5618 5618 5618 5617 5611 5611 5609 5613 5617 5617 5615 5612 5614 5618 5626 5637 5649 5654 5665 5676 5686 5695 5705 5714 5717 5724 5731 5736 5738 5741 5744 5746 5748 5750 5752 5752 5754 5755 5755
5629 5627 5625 5622 5617 5613 5611 5613 5611 5607 5605 5602 5606 5606 5602 5603 5601 5601 5606 5611 5624 5637 5644 5652 5663 5672 5682 5691 5701 5709 5715 5722 5727 5729 5732 5734 5735 5738 5742 5744 5747 5747 5748 5748
5623 5619 5619 5615 5612 5606 5606 5602 5601 5600 5602 5599 5598 5598 5596 5595 5594 5589 5594 5601 5613 5624 5632 5643 5651 5661 5672 5681 5690 5698 5705 5711 5716 5720 5723 5725 5727 5731 5736 5738 5739 5741 5741 5741
5617 5610 5607 5607 5603 5598 5597 5597 5596 5595 5596 5594 5593 5589 5591 5588 5586 5583 5587 5593 5600 5611 5618 5629 5636 5641 5657 5669 5680 5688 5695 5700 5706 5710 5714 5717 5721 5726 5729 5731 5732 5734 5734 5735
5614 5609 5602 5600 5596 5590 5589 5592 5592 5591 5589 5590 5589 5587 5585 5583 5579 5578 5580 5585 5593 5601 5606 5618 5625 5635 5639 5656 5669 5679 5686 5691 5696 5702 5707 5712 5716 5719 5721 5724 5726 5727 5728 5729
5607 5604 5598 5594 5590 5586 5585 5587 5589 5586 5584 5586 5584 5581 5581 5578 5576 5575 5573 5579 5586 5591 5603 5609 5603 5623 5629 5642 5657 5668 5676 5683 5689 5696 5701 5706 5710 5713 5715 5719 5720 5722 5723 5723
5601 5598 5594 5590 5584 5582 5579 5581 5583 5581 5580 5578 5578 5575 5576 5575 5571 5570 5571 5574 5587 5593 5600 5602 5604 5612 5623 5638 5648 5660 5669 5677 5685 5691 5696 5700 5704 5707 5710 5712 5715 5716 5717 5717
5597 5592 5589 5587 5581 5577 5576 5577 5576 5575 5573 5571 5574 5573 5568 5570 5574 5575 5572 5577 5583 5588 5596 5601 5601 5609 5622 5617 5618 5651 5665 5675 5681 5686 5690 5695 5699 5702 5704 5706 5709 5711 5712 5711
5595 5590 5586 5583 5578 5575 5575 5571 5571 5571 5569 5567 5567 5568 5568 5568 5568 5571 5573 5572 5576 5585 5593 5598 5603 5608 5608 5610 5636 5652 5664 5670 5676 5680 5685 5690 5694 5697 5700 5703 5705 5706 5706 5706
5592 5589 5584 5582 5578 5575 5571 5568 5566 5566 5563 5562 5560 5561 5565 5566 5569 5571 5570 5572 5578 5582 5591 5597 5606 5609 5602 5617 5636 5652 5660 5665 5671 5677 5682 5687 5690 5693 5696 5698 5700 5701 5701 5703
5589 5586 5583 5579 5576 5575 5569 5566 5562 5559 5558 5555 5556 5558 5563 5564 5567 5569 5571 5573 5577 5582 5592 5603 5609 5609 5618 5620 5638 5649 5657 5663 5670 5674 5679 5682 5686 5689 5692 5693 5695 5697 5698 5699
5587 5584 5580 5576 5572 5567 5565 5559 5557 5553 5553 5550 5549 5552 5557 5560 5562 5570 5572 5575 5580 5592 5600 5604 5608 5610 5602 5626 5639 5650 5657 5661 5668 5671 5676 5680 5683 5686 5688 5690 5692 5693 5695 5696
5583 5580 5577 5573 5568 5566 5560 5556 5553 5548 5548 5544 5544 5547 5550 5554 5558 5564 5568 5576 5585 5588 5592 5601 5607 5598 5604 5631 5643 5651 5656 5661 5664 5669 5674 5677 5680 5682 5685 5686 5688 5690 5691 5693
5579 5577 5572 5567 5563 5560 5554 5551 5546 5542 5538 5535 5538 5541 5547 5554 5559 5564 5568 5578 5584 5584 5588 5598 5606 5596 5615 5633 5643 5651 5654 5657 5663 5668 5671 5675 5677 5679 5681 5683 5684 5686 5688 5690
5575 5573 5569 5567 5560 5554 5548 5542 5537 5534 5530 5531 5532 5537 5546 5552 5557 5560 5567 5571 5576 5581 5587 5599 5605 5615 5626 5636 5644 5648 5652 5658 5663 5667 5671 5673 5675 5676 5678 5679 5681 5682 5685 5688
5570 5568 5566 5561 5557 5549 5540 5535 5530 5529 5532 5529 5530 5535 5541 5549 5556 5562 5567 5574 5581 5586 5590 5597 5604 5608 5627 5635 5641 5647 5653 5657 5661 5665 5668 5671 5672 5673 5675 5676 5678 5680 5683 5686
5567 5566 5562 5558 5551 5543 5536 5530 5530 5527 5527 5526 5527 5532 5541 5550 5558 5562 5571 5577 5580 5585 5591 5598 5607 5620 5627 5633 5639 5647 5652 5656 5659 5663 5666 5668 5670 5671 5673 5674 5677 5680 5682 5684
5565 5563 5561 5553 5545 5537 5532 5529 5528 5525 5525 5525 5526 5533 5542 5548 5556 5565 5573 5580 5584 5588 5587 5595 5590 5624 5627 5631 5640 5647 5652 5655 5658 5661 5664 5666 5668 5669 5671 5673 5676 5678 5680 5683
Wind_Speed
36 39 42 42 43 47 48 50 54 53 56 58 61 61 56 57 59 58 55 55 58 59 62 60 59 57 62 64 64 64 69 65 60 58 52 48 42 42 39 46 47 48 47 45
34 37 39 44 45 47 50 53 54 54 54 57 59 63 59 58 59 60 61 59 58 59 56 60 67 62 61 64 65 66 66 65 60 52 51 47 44 41 44 47 50 49 47 46
34 35 38 41 43 46 48 50 52 56 56 58 62 63 62 59 59 60 61 61 63 62 59 56 58 59 61 67 69 71 69 69 60 52 49 43 45 47 48 51 52 46 47 47
31 34 37 39 42 45 50 48 52 56 58 61 55 67 64 60 59 62 63 64 61 60 58 57 57 57 59 61 60 59 60 56 49 44 43 44 47 50 55 56 57 47 47 47
32 35 36 38 42 43 47 47 53 56 60 62 63 66 64 62 63 65 65 66 65 61 59 58 53 52 53 58 58 56 53 50 44 38 36 45 54 55 54 55 54 48 50 45
31 27 31 39 40 39 42 39 43 47 47 59 57 58 64 64 61 61 67 69 65 64 60 61 59 53 47 52 54 53 49 49 45 36 32 36 41 48 45 48 45 42 40 38
24 22 25 36 35 27 31 35 32 30 34 46 38 38 57 58 57 61 62 65 64 66 65 65 62 61 52 51 51 53 48 45 42 38 36 32 33 37 39 40 35 34 33 33
25 23 24 31 30 26 19 18 25 29 27 26 28 30 41 49 43 49 60 64 57 58 60 62 62 58 55 50 52 51 50 44 39 38 38 37 37 38 36 32 29 31 29 30
26 22 24 27 29 32 29 19 22 25 26 30 25 25 21 31 45 46 53 56 60 58 56 57 58 56 53 48 43 49 47 42 37 38 41 44 40 40 36 30 29 27 28 29
24 27 25 23 29 27 25 23 24 27 29 28 29 32 31 27 37 39 49 49 47 44 53 56 53 52 50 48 44 40 39 40 38 38 39 39 39 38 33 30 27 27 28 28
30 33 30 26 26 23 19 22 27 24 24 29 33 25 27 23 33 36 35 48 40 45 49 56 51 54 49 44 40 41 33 37 37 38 37 36 34 32 29 27 26 25 26 25
29 31 25 26 25 25 26 32 28 24 21 23 25 28 27 29 34 34 33 37 46 51 48 50 52 46 44 44 40 39 35 36 38 39 34 31 31 28 25 24 24 24 22 20
22 20 23 19 20 22 22 29 27 30 33 30 30 27 25 25 30 31 28 48 47 46 42 41 51 59 46 38 40 39 37 37 36 31 29 28 25 21 22 23 22 19 18 19
22 19 25 27 22 22 25 25 23 28 34 22 19 26 24 30 32 18 26 52 46 39 41 52 37 37 38 38 41 42 38 36 32 27 26 24 21 19 21 21 18 17 17 15
20 20 26 32 25 20 19 26 23 27 27 26 25 27 23 29 34 8 29 22 38 37 37 22 25 41 37 39 38 40 35 33 29 25 22 22 20 21 22 19 17 15 14 14
25 30 26 32 23 23 14 12 22 24 28 24 24 25 30 28 30 13 17 33 27 32 37 16 33 41 38 43 38 33 30 30 26 22 22 21 21 20 19 16 14 12 13 15
19 22 24 18 21 17 12 17 18 20 21 27 25 25 22 25 33 17 19 30 26 31 33 30 32 34 37 41 40 31 29 25 24 22 21 19 18 17 16 14 12 11 13 11
17 19 19 18 20 17 15 19 23 24 25 23 25 25 21 20 24 22 13 34 36 37 38 34 30 32 28 27 34 29 24 22 22 20 18 18 16 15 13 11 11 11 10 10
20 19 21 24 24 20 15 16 14 17 11 18 19 24 16 13 23 17 15 23 24 43 38 32 30 28 19 37 34 26 24 23 18 16 16 15 14 13 11 11 10 10 9 8
19 19 23 24 26 31 23 22 17 24 23 17 17 12 28 27 24 17 14 24 21 39 31 28 29 20 34 33 26 25 22 18 16 15 15 13 13 11 11 10 10 10 9 7
18 19 23 24 29 33 23 15 26 26 28 23 13 14 12 18 25 22 17 20 26 37 35 36 33 30 34 28 24 21 18 15 15 15 13 13 12 11 10 10 10 9 9 7
14 18 21 28 35 32 26 27 29 30 28 20 12 15 14 22 23 19 28 28 37 43 40 38 35 29 28 27 21 19 16 18 17 13 12 10 9 10 10 9 9 9 8 7
12 15 19 23 30 39 34 32 30 16 15 9 12 14 26 26 24 29 27 36 41 47 40 37 30 31 28 24 20 18 19 17 15 14 12 9 10 9 9 10 10 10 10 9
11 14 21 27 36 41 37 29 21 12 12 12 21 23 29 25 31 28 36 39 43 45 41 37 34 39 33 26 23 21 17 14 12 11 9 9 7 6 8 9 10 11 11 11
12 16 23 31 36 40 29 20 9 10 8 17 25 29 29 34 36 34 44 41 42 42 41 35 37 34 31 25 21 18 16 13 12 10 9 7 6 7 9 9 8 9 12 13
8 13 26 33 38 37 24 10 8 3 2 12 23 29 37 36 33 39 38 42 39 42 27 50 37 40 29 23 20 18 15 15 12 10 8 7 7 9 11 10 10 7 7 12
Wind_Direction
268 268 266 263 262 261 258 255 254 250 249 248 249 250 248 242 237 239 240 240 239 234 237 234 242 246 246 247 247 247 252 255 258 263 266 270 273 277 286 288 291 298 303 309
271 270 268 266 267 265 266 263 260 255 256 254 253 254 251 250 249 245 243 238 241 242 234 239 235 238 248 254 257 253 253 256 258 262 268 272 276 278 280 285 289 292 299 304
280 276 274 272 270 268 266 265 264 262 259 258 255 251 250 247 250 253 252 251 245 242 240 235 235 240 246 246 249 259 263 264 265 257 263 271 277 277 277 286 286 292 299 299
285 280 275 271 268 266 267 260 258 258 258 260 257 256 249 247 247 248 250 253 252 252 249 245 239 235 236 244 250 257 257 263 274 274 265 269 272 274 281 282 284 290 295 295
296 291 286 279 274 271 268 265 266 262 260 260 258 258 250 248 243 245 248 249 249 251 251 248 243 243 242 243 250 255 261 266 267 268 257 256 260 264 270 278 285 288 289 285
314 314 309 303 303 291 284 273 262 256 259 259 258 261 255 257 253 246 247 246 245 248 250 251 250 239 241 248 251 255 259 260 263 263 272 274 261 260 270 276 279 281 275 280
298 319 313 317 307 291 274 273 277 261 263 268 267 267 259 254 253 250 245 243 242 243 243 243 247 244 233 240 244 250 254 261 265 266 264 262 264 266 270 273 272 267 272 276
307 307 313 323 302 269 263 267 262 274 277 283 250 269 265 250 249 244 245 244 240 238 241 245 246 246 248 242 245 250 250 253 259 262 262 255 261 263 266 267 264 268 271 264
303 304 310 317 314 290 259 272 259 284 264 282 272 270 265 254 253 249 245 242 243 240 236 243 247 249 247 246 244 248 250 251 252 254 253 254 254 259 262 262 262 270 264 265
306 306 310 301 313 310 269 266 266 272 269 290 282 279 279 241 237 243 241 238 231 231 226 237 243 246 246 243 239 240 240 244 245 246 249 250 251 255 258 260 263 258 263 268
313 304 300 293 310 298 235 265 239 252 273 282 287 278 264 255 244 241 229 230 222 207 222 236 234 245 247 242 239 240 236 238 242 244 247 247 250 253 255 256 255 260 265 267
313 309 310 300 299 280 252 245 266 268 273 275 288 279 281 279 266 260 222 206 200 203 224 234 236 229 237 232 230 233 228 231 237 243 245 244 246 248 250 249 253 259 261 262
318 324 322 332 315 266 251 240 256 259 269 276 286 289 296 283 271 259 241 198 189 198 207 212 228 238 223 227 221 223 220 228 236 238 235 237 243 244 242 245 250 253 256 263
310 327 328 327 319 292 259 246 255 257 269 273 275 296 321 302 274 260 231 190 186 204 205 210 242 203 202 201 209 215 215 225 229 226 229 235 234 232 241 245 250 249 257 257
316 314 316 333 317 313 277 252 259 267 269 266 276 305 319 315 297 27 212 182 204 216 197 229 210 197 199 201 201 210 212 221 225 225 225 228 230 235 240 242 240 247 250 267
320 306 312 326 305 316 335 242 238 246 247 265 281 282 279 296 301 315 162 225 193 175 189 183 173 182 192 209 179 196 205 210 214 217 219 220 227 234 240 236 241 238 261 276
329 330 320 338 336 326 308 287 288 299 279 273 270 270 273 290 297 251 167 171 152 173 178 181 181 182 191 211 168 184 190 197 204 206 213 220 228 230 224 226 230 251 267 268
323 332 334 339 341 339 317 303 298 290 279 275 266 255 259 283 287 300 230 176 185 196 187 179 189 193 202 156 158 178 183 189 195 203 211 217 217 216 215 217 236 257 252 261
327 321 325 320 328 334 318 304 298 305 317 299 268 236 237 273 267 276 201 197 192 177 177 179 189 200 171 162 160 171 180 183 193 204 211 210 209 207 207 227 247 235 249 243
324 332 336 333 336 336 323 297 285 308 316 304 273 269 226 243 254 269 266 190 186 177 173 166 180 192 139 148 157 172 179 178 182 197 196 195 199 204 214 230 220 231 233 235
320 332 329 335 336 333 318 314 305 308 308 305 275 237 222 246 251 246 236 185 178 178 177 176 185 178 161 152 167 172 172 163 181 188 185 193 197 208 216 220 226 223 215 226
316 323 332 338 332 337 315 312 310 307 302 292 244 224 224 227 234 224 203 180 180 172 178 185 184 179 153 160 167 172 161 174 173 170 189 191 202 212 215 223 227 220 205 211
307 313 321 329 329 332 322 306 309 304 283 275 224 203 205 206 203 203 196 188 188 189 189 191 175 149 159 162 157 156 170 163 163 175 181 191 207 210 218 222 219 211 194 200
301 317 324 333 334 331 324 314 307 260 251 248 211 188 202 189 188 195 189 184 184 189 190 178 147 155 156 149 156 162 159 162 169 171 185 196 199 212 208 208 199 193 191 195
319 334 334 336 331 331 324 318 304 292 270 217 205 189 192 186 195 190 182 182 184 191 189 170 147 156 150 152 155 155 157 166 174 178 186 182 189 192 184 177 180 198 207 197
335 327 339 336 329 334 331 312 318 247 360 233 209 177 176 191 196 189 185 178 188 188 202 161 152 164 153 157 155 157 162 171 173 175 178 183 184 173 171 189 204 217 212 181